Powrót do katalogu

SL-12 R/B(2)

AktywnyGEO
NORAD 27444·ROCKET BODY·🇷🇺 Russia

Wystrzelony Jun 10, 2002 z Baikonur Cosmodrome

Loading…

TLE

ŚwieżeSource: Space-Track

Epoka: Sep 14, 2026, 16:09 UTC

1 27444U 02029D   26257.67312145 -.00000324  00000-0  00000-0 0  9995
2 27444  14.2429   9.3762 0010166  32.3458 329.4450  0.99273417 87982

Śledź SL-12 R/B(2) w czasie rzeczywistym z AllMySat

Download on the App Store